Location: Béaulencourt
(50.0796°N, 2.8795°E)
Time: 00:51:16
(UTC+00:00)

Gbstr 26 Del rocket - Pass Details

Date: 20 January 2026
Orbit: 490 x 1217 km, 51.8° (Epoch: 17 February)

Event Time Altitude Azimuth Distance (km) Brightness Sun altitude
Exits shadow 05:52:50 21° 262° (W) 2,291 5.4 -16.3°
Maximum altitude 05:58:04 82° 349° (NNW) 1,057 4.1 -15.5°
Drops below altitude 10° 06:04:24 10° 78° (ENE) 2,603 7.3 -14.5°
Sets 06:06:44 0° 79° (E) 3,438 8.1 -14.2°
